Flag for Germany Weather past 2 weeks in Eckernförde, Schleswig-Holstein, Germany

Now
67 °F

Passing clouds.


Feels Like: 67 °F
Forecast: 56 / 71 °F
Wind: 1 mph from Southwest

Location: Schleswig

Current Time: Aug 4, 2015 at 6:26:48 AM

Latest Report: Aug 4, 2015 at 4:00 AM


Visibility: 16 mi

Pressure: 29.93 "Hg

Humidity: 72%

Dew point: 57 °F

Location of EckernfördeLocation

Historic Weather in Eckernförde — Graph

°F

Eckernförde temperature yesterday

Maximum temperature yesterday: 79 °F (at 4:00 PM)
Minimum temperature yesterday: 53 °F (at 4:00 AM)
Average temperature yesterday: 67 °F

Past Weeks' High & Low Weather Summary

 TemperatureHumidityPressure
High79 °F (Aug 3, 4:00 PM)100% (Jul 21, 8:00 AM)30.15 "Hg (Jul 21, 8:00 AM)
Low46 °F (Aug 1, 4:00 AM)43% (Aug 2, 2:00 PM)29.38 "Hg (Jul 28, 3:00 AM)
Average61 °F81%29.82 "Hg
* Reported Jul 20 4:00 AM — Aug 4 4:00 AM, Eckernförde, Weather by CustomWeather, © 2015

Note: Actual official high and low records may vary slightly from our data, if they occured in-between our weather recording intervals... More about our weather records

Advertising

Eckernförde weather history for previous 24 hours

 ConditionsComfort  
Time TempWeatherWind HumidityBarometerVisibility
4:00 AM
Tue, Aug 4
67 °FPassing clouds.1 mph72%29.93 "Hg16 mi
3:00 AM68 °FClear.3 mph69%29.93 "Hg12 mi
2:00 AM68 °FClear.3 mph69%29.95 "Hg12 mi
1:00 AM64 °FClear.2 mph85%29.96 "Hg12 mi
10:00 PM
Mon, Aug 3
67 °FPassing clouds.2 mph78%29.97 "Hg19 mi
9:00 PM71 °FScattered clouds.2 mph68%29.97 "Hg22 mi
8:00 PM75 °FScattered clouds.3 mph60%29.96 "Hg19 mi
7:00 PM78 °FPassing clouds.3 mph55%29.96 "Hg19 mi
6:00 PM77 °FPassing clouds.5 mph54%29.98 "Hg19 mi
5:00 PM79 °FPassing clouds.5 mph52%29.99 "Hg19 mi
4:00 PM79 °FPassing clouds.5 mph51%30.01 "Hg19 mi
3:00 PM78 °FPassing clouds.6 mph52%30.02 "Hg19 mi
2:00 PM76 °FPassing clouds.6 mph52%30.03 "Hg19 mi
1:00 PM76 °FPassing clouds.6 mph51%30.05 "Hg19 mi
12:00 PM73 °FPassing clouds.5 mph51%30.07 "Hg19 mi
11:00 AM71 °FPassing clouds.6 mph56%30.08 "Hg19 mi
10:00 AM67 °FPassing clouds.6 mph60%30.09 "Hg19 mi
9:00 AM64 °FPassing clouds.5 mph75%30.10 "Hg12 mi
8:00 AM59 °FPassing clouds.3 mph95%30.10 "Hg6 mi
7:00 AM54 °FFog.2 mph99%30.11 "Hg2 mi
6:00 AM53 °FFog.2 mph99%30.11 "Hg2 mi
Weather by CustomWeather, © 2015

See weather overviewHow to use our weather pages